KA7EII-13 Weather Reports


time (UTC)temp
C
wind
direction
speed
KPH
gust
KPH
rain 1hr
cm
rain 24hr
cm
rain mn
cm
humidity
%
barometer
mb
20260906231902 26 129 0.0 4.8 0.00 0.00 0.00 25 1104.2
20260906231357 26 263 4.8 9.7 0.00 0.00 0.00 26 1104.3
20260906230857 27 117 1.6 8.0 0.00 0.00 0.00 24 1104.0
20260906230352 27 202 4.8 8.0 0.00 0.00 0.00 24 1104.2
20260906225850 27 205 3.2 11.3 0.00 0.00 0.00 22 1104.0
20260906225346 27 136 1.6 8.0 0.00 0.00 0.00 24 1104.2
20260906224841 28 221 8.0 12.9 0.00 0.00 0.00 22 1104.2
20260906224338 27 318 4.8 8.0 0.00 0.00 0.00 21 1104.2
20260906223834 27 135 3.2 11.3 0.00 0.00 0.00 23 1104.2
20260906223330 28 121 1.6 3.2 0.00 0.00 0.00 23 1104.2
20260906222827 28 162 3.2 8.0 0.00 0.00 0.00 22 1104.3
20260906222326 28 288 3.2 8.0 0.00 0.00 0.00 20 1104.4
20260906221825 28 281 3.2 12.9 0.00 0.00 0.00 21 1104.4
20260906221325 28 167 4.8 8.0 0.00 0.00 0.00 21 1104.6
20260906220820 29 152 3.2 4.8 0.00 0.00 0.00 21 1104.2
20260906220315 30 213 3.2 8.0 0.00 0.00 0.00 21 1104.3
20260906215814 29 295 6.4 8.0 0.00 0.00 0.00 21 1104.3
20260906215309 29 344 6.4 11.3 0.00 0.00 0.00 20 1104.5
20260906214807 29 279 6.4 16.1 0.00 0.00 0.00 20 1104.5
20260906214302 30 290 4.8 11.3 0.00 0.00 0.00 22 1104.3
20260906213801 29 306 6.4 12.9 0.00 0.00 0.00 22 1104.0
20260906213300 29 150 1.6 4.8 0.00 0.00 0.00 22 1104.4
20260906212758 29 359 3.2 11.3 0.00 0.00 0.00 21 1104.7
20260906212253 29 149 3.2 9.7 0.00 0.00 0.00 23 1104.7
20260906211753 29 160 1.6 12.9 0.00 0.00 0.00 23 1104.7
20260906211248 30 191 4.8 8.0 0.00 0.00 0.00 23 1105.1
20260906210744 30 196 3.2 12.9 0.00 0.00 0.00 23 1104.8
20260906210238 29 241 6.4 11.3 0.00 0.00 0.00 21 1105.3
20260906205733 30 140 3.2 8.0 0.00 0.00 0.00 23 1105.1
20260906205230 29 272 3.2 8.0 0.00 0.00 0.00 24 1105.6
20260906204731 29 118 9.7 14.5 0.00 0.00 0.00 23 1105.3
20260906204229 29 343 6.4 9.7 0.00 0.00 0.00 24 1105.4
20260906203729 28 117 3.2 9.7 0.00 0.00 0.00 24 1105.5
20260906203224 28 322 3.2 12.9 0.00 0.00 0.00 23 1105.3
20260906202721 28 195 3.2 11.3 0.00 0.00 0.00 23 1105.3
20260906202220 28 156 11.3 16.1 0.00 0.00 0.00 21 1105.2
20260906201715 28 317 9.7 16.1 0.00 0.00 0.00 21 1105.2
20260906201215 28 176 3.2 12.9 0.00 0.00 0.00 24 1105.5
20260906200711 28 122 3.2 24.1 0.00 0.00 0.00 23 1105.3
20260906200206 28 157 4.8 11.3 0.00 0.00 0.00 25 1105.4
20260906195701 28 236 1.6 11.3 0.00 0.00 0.00 25 1105.3
20260906195158 28 159 4.8 11.3 0.00 0.00 0.00 27 1105.6
20260906194654 28 345 3.2 4.8 0.00 0.00 0.00 27 1105.8
20260906194149 28 234 1.6 4.8 0.00 0.00 0.00 30 1105.6
20260906193644 28 261 3.2 8.0 0.00 0.00 0.00 28 1105.5
20260906193139 27 264 3.2 4.8 0.00 0.00 0.00 29 1105.9
20260906192635 28 209 1.6 3.2 0.00 0.00 0.00 28 1105.8
20260906192134 28 3 4.8 8.0 0.00 0.00 0.00 27 1106.1
20260906191629 27 198 1.6 8.0 0.00 0.00 0.00 31 1106.1
20260906191128 26 207 1.6 4.8 0.00 0.00 0.00 33 1106.2
20260906190623 26 19 1.6 3.2 0.00 0.00 0.00 32 1106.3
20260906190117 26 220 3.2 8.0 0.00 0.00 0.00 32 1106.4
20260906185615 26 234 0.0 3.2 0.00 0.00 0.00 32 1106.6
20260906185115 26 329 4.8 9.7 0.00 0.00 0.00 34 1106.8
20260906184610 26 181 1.6 8.0 0.00 0.00 0.00 33 1106.9
20260906184105 26 243 3.2 11.3 0.00 0.00 0.00 33 1106.9
20260906183601 26 281 4.8 9.7 0.00 0.00 0.00 37 1106.9
20260906183052 25 236 6.4 8.0 0.00 0.00 0.00 37 1107.0
20260906182552 25 169 1.6 3.2 0.00 0.00 0.00 35 1107.3
20260906182049 25 188 0.0 4.8 0.00 0.00 0.00 40 1107.3
20260906181544 25 218 4.8 4.8 0.00 0.00 0.00 39 1107.1
20260906181039 25 230 1.6 3.2 0.00 0.00 0.00 39 1107.1
20260906180534 25 221 1.6 8.0 0.00 0.00 0.00 37 1107.4
20260906180033 25 210 1.6 3.2 0.00 0.00 0.00 38 1107.6
20260906175527 25 254 4.8 8.0 0.00 0.00 0.00 40 1107.9
20260906175027 25 226 1.6 3.2 0.00 0.00 0.00 39 1107.4
20260906174524 23 185 0.0 1.6 0.00 0.00 0.00 43 1107.7
20260906174019 23 227 1.6 4.8 0.00 0.00 0.00 41 1107.9
20260906173514 23 284 3.2 4.8 0.00 0.00 0.00 42 1108.1
20260906173010 23 220 0.0 4.8 0.00 0.00 0.00 42 1107.9
20260906172505 23 244 0.0 3.2 0.00 0.00 0.00 41 1108.2
20260906172001 22 180 3.2 3.2 0.00 0.00 0.00 44 1108.3
20260906171455 22 219 1.6 8.0 0.00 0.00 0.00 45 1108.2
20260906170950 21 18 0.0 3.2 0.00 0.00 0.00 44 1108.2
20260906170447 22 254 1.6 1.6 0.00 0.00 0.00 42 1108.4
20260906165944 22 227 1.6 3.2 0.00 0.00 0.00 44 1108.2
20260906165443 22 41 0.0 1.6 0.00 0.00 0.00 42 1108.2
20260906164938 22 17 1.6 3.2 0.00 0.00 0.00 43 1108.4
20260906164436 22 139 0.0 1.6 0.00 0.00 0.00 44 1108.4
20260906163933 21 29 1.6 1.6 0.00 0.00 0.00 47 1108.6
20260906163429 20 7 3.2 4.8 0.00 0.00 0.00 46 1108.3
20260906162927 20 16 1.6 3.2 0.00 0.00 0.00 47 1108.5
20260906162425 20 27 1.6 4.8 0.00 0.00 0.00 47 1108.4
20260906161920 21 173 1.6 3.2 0.00 0.00 0.00 48 1108.5
20260906161419 20 170 1.6 3.2 0.00 0.00 0.00 49 1108.6
20260906160918 21 161 3.2 3.2 0.00 0.00 0.00 46 1108.6
20260906160407 21 177 0.0 1.6 0.00 0.00 0.00 45 1109.0
20260906155905 20 172 0.0 3.2 0.00 0.00 0.00 47 1108.7
20260906155359 19 196 0.0 1.6 0.00 0.00 0.00 48 1109.1
20260906154856 20 168 1.6 3.2 0.00 0.00 0.00 50 1108.9
20260906154355 19 170 1.6 3.2 0.00 0.00 0.00 51 1109.1
20260906153854 18 181 1.6 1.6 0.00 0.00 0.00 51 1109.1
20260906153353 19 201 0.0 1.6 0.00 0.00 0.00 53 1109.1
20260906152848 18 201 0.0 1.6 0.00 0.00 0.00 57 1109.2
20260906152343 18 201 0.0 1.6 0.00 0.00 0.00 54 1109.3
20260906151842 18 208 0.0 1.6 0.00 0.00 0.00 53 1109.2
20260906151338 18 209 0.0 1.6 0.00 0.00 0.00 52 1109.0
20260906150834 18 210 0.0 3.2 0.00 0.00 0.00 53 1109.3
20260906150329 17 220 0.0 1.6 0.00 0.00 0.00 53 1109.2
20260906145828 16 228 0.0 1.6 0.00 0.00 0.00 56 1109.2
20260906145326 16 224 0.0 1.6 0.00 0.00 0.00 57 1109.2
20260906144822 15 232 0.0 1.6 0.00 0.00 0.00 59 1109.3
20260906144317 15 224 0.0 0.0 0.00 0.00 0.00 60 1109.3
20260906143817 13 227 0.0 1.6 0.00 0.00 0.00 64 1109.2
20260906143314 13 228 0.0 0.0 0.00 0.00 0.00 68 1109.5
20260906142808 13 228 0.0 1.6 0.00 0.00 0.00 67 1109.4
20260906142306 12 228 0.0 0.0 0.00 0.00 0.00 71 1109.2
20260906141802 12 228 0.0 0.0 0.00 0.00 0.00 73 1109.1
20260906141257 11 228 0.0 0.0 0.00 0.00 0.00 75 1109.3
20260906140756 11 227 0.0 0.0 0.00 0.00 0.00 76 1109.2
20260906140251 11 227 0.0 0.0 0.00 0.00 0.00 78 1109.2
20260906135749 11 227 0.0 0.0 0.00 0.00 0.00 78 1109.1
20260906135244 10 228 0.0 0.0 0.00 0.00 0.00 80 1108.9
20260906134739 10 228 0.0 0.0 0.00 0.00 0.00 78 1109.0
20260906134234 10 228 0.0 0.0 0.00 0.00 0.00 79 1109.0
20260906133730 10 228 0.0 0.0 0.00 0.00 0.00 80 1108.9
20260906133225 10 227 0.0 0.0 0.00 0.00 0.00 80 1108.6
20260906132720 9 228 0.0 0.0 0.00 0.00 0.00 81 1108.6
20260906132216 9 228 0.0 0.0 0.00 0.00 0.00 81 1108.7
20260906131711 9 228 0.0 0.0 0.00 0.00 0.00 82 1108.6
20260906131206 9 228 0.0 0.0 0.00 0.00 0.00 81 1108.6
20260906130701 8 228 0.0 0.0 0.00 0.00 0.00 82 1108.4
20260906130157 8 227 0.0 0.0 0.00 0.00 0.00 82 1108.4
20260906125649 9 227 0.0 0.0 0.00 0.00 0.00 82 1108.4
20260906125148 9 227 0.0 0.0 0.00 0.00 0.00 81 1108.5
20260906124644 9 227 0.0 0.0 0.00 0.00 0.00 81 1108.3
20260906124139 8 227 0.0 0.0 0.00 0.00 0.00 82 1108.3
20260906123638 8 227 0.0 0.0 0.00 0.00 0.00 83 1108.3
20260906123134 8 228 0.0 0.0 0.00 0.00 0.00 83 1108.3
20260906122632 8 227 0.0 0.0 0.00 0.00 0.00 82 1108.1
20260906122128 8 227 0.0 0.0 0.00 0.00 0.00 82 1108.3
20260906121624 9 227 0.0 0.0 0.00 0.00 0.00 81 1108.3
20260906121120 9 227 0.0 0.0 0.00 0.00 0.00 81 1108.3
20260906120616 9 227 0.0 0.0 0.00 0.00 0.00 80 1108.2
20260906120113 10 227 0.0 0.0 0.00 0.00 0.00 79 1108.4
20260906115612 10 228 0.0 0.0 0.00 0.00 0.00 78 1108.2
20260906115108 10 228 0.0 0.0 0.00 0.00 0.00 77 1108.3
20260906114602 10 227 0.0 0.0 0.00 0.00 0.00 76 1108.2
20260906114057 11 227 0.0 0.0 0.00 0.00 0.00 75 1107.9
20260906113556 11 228 0.0 0.0 0.00 0.00 0.00 73 1108.1
20260906113052 11 228 0.0 0.0 0.00 0.00 0.00 71 1108.2
20260906112551 12 228 0.0 0.0 0.00 0.00 0.00 69 1107.9
20260906112048 12 228 0.0 1.6 0.00 0.00 0.00 68 1107.9
20260906111548 12 229 0.0 1.6 0.00 0.00 0.00 66 1107.9
20260906111043 13 232 0.0 0.0 0.00 0.00 0.00 65 1108.1
20260906110542 13 236 0.0 1.6 0.00 0.00 0.00 65 1108.1
20260906110042 13 246 0.0 1.6 0.00 0.00 0.00 64 1107.7
20260906105537 13 244 0.0 3.2 0.00 0.00 0.00 64 1107.9
20260906105033 13 248 1.6 4.8 0.00 0.00 0.00 63 1107.9
20260906104531 13 254 0.0 1.6 0.00 0.00 0.00 63 1107.8
20260906104026 13 297 0.0 3.2 0.00 0.00 0.00 63 1107.8
20260906103524 13 268 1.6 4.8 0.00 0.00 0.00 62 1107.5
20260906103020 13 246 3.2 4.8 0.00 0.00 0.00 62 1107.8
20260906102520 14 305 3.2 4.8 0.00 0.00 0.00 61 1107.6
20260906102015 14 319 0.0 9.7 0.00 0.00 0.00 61 1107.7
20260906101510 14 288 0.0 8.0 0.00 0.00 0.00 62 1107.6
20260906101005 14 229 0.0 1.6 0.00 0.00 0.00 62 1107.4
20260906100500 14 262 3.2 3.2 0.00 0.00 0.00 62 1107.4
20260906100000 14 272 4.8 4.8 0.00 0.00 0.00 62 1107.5
20260906095455 14 288 4.8 4.8 0.00 0.00 0.00 62 1107.5
20260906094950 14 272 4.8 4.8 0.00 0.00 0.00 62 1107.5
20260906094449 14 239 0.0 3.2 0.00 0.00 0.00 63 1107.3
20260906093945 14 291 3.2 4.8 0.00 0.00 0.00 62 1107.1
20260906093441 14 250 1.6 4.8 0.00 0.00 0.00 61 1107.3
20260906092936 14 247 0.0 1.6 0.00 0.00 0.00 60 1107.0
20260906092435 14 293 1.6 3.2 0.00 0.00 0.00 60 1106.9
20260906091931 15 274 1.6 3.2 0.00 0.00 0.00 58 1106.7
20260906091426 15 260 4.8 8.0 0.00 0.00 0.00 55 1106.6
20260906090923 15 281 1.6 3.2 0.00 0.00 0.00 51 1106.4
20260906090418 16 313 1.6 1.6 0.00 0.00 0.00 46 1106.1
20260906085913 15 303 3.2 4.8 0.00 0.00 0.00 45 1106.2
20260906085412 15 278 1.6 3.2 0.00 0.00 0.00 49 1106.0
20260906084911 14 262 1.6 1.6 0.00 0.00 0.00 52 1106.1
20260906084406 14 250 1.6 3.2 0.00 0.00 0.00 52 1105.9
20260906083905 14 249 0.0 0.0 0.00 0.00 0.00 53 1105.9
20260906083401 15 250 1.6 1.6 0.00 0.00 0.00 53 1105.8
20260906082901 14 256 4.8 8.0 0.00 0.00 0.00 53 1105.8
20260906082401 14 268 1.6 1.6 0.00 0.00 0.00 55 1105.6
20260906081857 14 270 1.6 3.2 0.00 0.00 0.00 54 1105.6
20260906081352 15 284 1.6 3.2 0.00 0.00 0.00 51 1105.9
20260906080848 15 292 0.0 3.2 0.00 0.00 0.00 49 1105.6
20260906080345 16 312 0.0 1.6 0.00 0.00 0.00 46 1105.8
20260906075843 17 263 0.0 1.6 0.00 0.00 0.00 44 1105.9
20260906075339 18 267 1.6 4.8 0.00 0.00 0.00 41 1106.1
20260906074834 20 212 1.6 4.8 0.00 0.00 0.00 35 1106.0
20260906074334 20 240 1.6 1.6 0.00 0.00 0.00 35 1106.0
20260906073832 20 222 4.8 8.0 0.00 0.00 0.00 33 1105.6
20260906073328 20 175 1.6 8.0 0.00 0.00 0.00 34 1105.6
20260906072824 20 202 4.8 4.8 0.00 0.00 0.00 34 1105.6
20260906072320 18 221 1.6 1.6 0.00 0.00 0.00 37 1105.9
20260906071815 19 204 0.0 0.0 0.00 0.00 0.00 39 1105.9
20260906071310 20 204 0.0 3.2 0.00 0.00 0.00 34 1105.8
20260906070807 20 167 0.0 3.2 0.00 0.00 0.00 33 1105.5
20260906070302 20 159 0.0 4.8 0.00 0.00 0.00 32 1105.6
20260906065801 19 202 3.2 8.0 0.00 0.00 0.00 33 1105.8
20260906065257 19 196 0.0 3.2 0.00 0.00 0.00 35 1105.8
20260906064752 20 193 1.6 3.2 0.00 0.00 0.00 34 1105.8
20260906064248 20 230 4.8 4.8 0.00 0.00 0.00 33 1105.8
20260906063743 20 162 3.2 4.8 0.00 0.00 0.00 33 1106.0
20260906063239 20 192 0.0 1.6 0.00 0.00 0.00 32 1105.9
20260906062733 20 178 1.6 8.0 0.00 0.00 0.00 32 1105.9
20260906062227 20 173 1.6 3.2 0.00 0.00 0.00 32 1106.1
20260906061723 18 142 6.4 8.0 0.00 0.00 0.00 34 1106.1
20260906061220 16 197 0.0 1.6 0.00 0.00 0.00 42 1106.0
20260906060715 16 197 0.0 0.0 0.00 0.00 0.00 43 1106.1
20260906060212 16 197 0.0 1.6 0.00 0.00 0.00 43 1106.0
20260906055708 16 197 0.0 1.6 0.00 0.00 0.00 43 1106.3
20260906055203 16 197 0.0 1.6 0.00 0.00 0.00 43 1106.4
20260906054658 16 197 0.0 0.0 0.00 0.00 0.00 43 1106.3
20260906054157 16 197 0.0 3.2 0.00 0.00 0.00 43 1106.3
20260906053655 16 201 0.0 1.6 0.00 0.00 0.00 44 1106.4
20260906053149 16 201 0.0 0.0 0.00 0.00 0.00 44 1106.8
20260906052645 16 201 0.0 0.0 0.00 0.00 0.00 44 1106.6
20260906052141 16 202 1.6 1.6 0.00 0.00 0.00 45 1107.1
20260906051638 16 204 1.6 1.6 0.00 0.00 0.00 48 1107.3
20260906051137 15 202 0.0 0.0 0.00 0.00 0.00 50 1106.8
20260906050633 15 202 0.0 0.0 0.00 0.00 0.00 53 1107.1
20260906050128 15 202 0.0 0.0 0.00 0.00 0.00 54 1107.1
20260906045626 15 202 0.0 0.0 0.00 0.00 0.00 53 1107.0
20260906045121 15 202 0.0 0.0 0.00 0.00 0.00 53 1107.1
20260906044617 15 202 0.0 0.0 0.00 0.00 0.00 54 1107.1
20260906044112 15 202 0.0 0.0 0.00 0.00 0.00 52 1106.9
20260906043609 16 202 0.0 0.0 0.00 0.00 0.00 53 1107.4
20260906043104 16 202 0.0 0.0 0.00 0.00 0.00 53 1107.3
20260906042603 16 202 0.0 0.0 0.00 0.00 0.00 52 1107.8
20260906042058 16 202 0.0 0.0 0.00 0.00 0.00 53 1107.4
20260906041554 16 202 0.0 0.0 0.00 0.00 0.00 52 1107.7
20260906041048 15 202 0.0 1.6 0.00 0.00 0.00 55 1107.4
20260906040544 15 202 0.0 0.0 0.00 0.00 0.00 56 1107.5
20260906040039 15 202 0.0 0.0 0.00 0.00 0.00 56 1107.4
20260906035534 15 202 0.0 0.0 0.00 0.00 0.00 56 1107.6
20260906035025 15 202 0.0 0.0 0.00 0.00 0.00 57 1107.6
20260906034524 16 202 0.0 0.0 0.00 0.00 0.00 57 1107.5
20260906034019 16 202 1.6 1.6 0.00 0.00 0.00 59 1107.6
20260906033514 15 202 1.6 3.2 0.00 0.00 0.00 60 1107.9
20260906033010 16 203 0.0 0.0 0.00 0.00 0.00 62 1107.6
20260906032507 16 203 0.0 1.6 0.00 0.00 0.00 61 1107.6
20260906032001 16 203 0.0 0.0 0.00 0.00 0.00 60 1107.7
20260906031456 16 203 0.0 0.0 0.00 0.00 0.00 60 1107.8
20260906030951 17 203 0.0 0.0 0.00 0.00 0.00 57 1107.7
20260906030445 17 203 0.0 0.0 0.00 0.00 0.00 55 1107.6
20260906025940 17 203 0.0 0.0 0.00 0.00 0.00 54 1107.6
20260906025434 18 203 0.0 0.0 0.00 0.00 0.00 53 1107.4
20260906024933 18 203 0.0 0.0 0.00 0.00 0.00 51 1107.5
20260906024432 19 203 0.0 0.0 0.00 0.00 0.00 50 1107.4
20260906023927 20 203 0.0 1.6 0.00 0.00 0.00 47 1107.3
20260906023424 20 206 0.0 1.6 0.00 0.00 0.00 46 1107.3
20260906022924 20 208 0.0 1.6 0.00 0.00 0.00 46 1107.1
20260906022419 20 213 0.0 0.0 0.00 0.00 0.00 48 1107.0
20260906021914 20 214 0.0 1.6 0.00 0.00 0.00 45 1107.3
20260906021415 20 215 0.0 0.0 0.00 0.00 0.00 45 1107.1
20260906020914 20 216 0.0 0.0 0.00 0.00 0.00 44 1107.1
20260906020409 20 216 0.0 0.0 0.00 0.00 0.00 45 1107.1
20260906015904 21 216 0.0 0.0 0.00 0.00 0.00 43 1107.1
20260906015403 21 216 0.0 0.0 0.00 0.00 0.00 43 1107.3
20260906014902 21 216 0.0 1.6 0.00 0.00 0.00 44 1107.1
20260906014356 22 216 0.0 0.0 0.00 0.00 0.00 42 1107.1
20260906013853 22 216 0.0 0.0 0.00 0.00 0.00 40 1106.9
20260906013348 23 216 0.0 0.0 0.00 0.00 0.00 39 1107.1
20260906012843 23 216 0.0 0.0 0.00 0.00 0.00 37 1107.1
20260906012338 24 217 0.0 1.6 0.00 0.00 0.00 32 1107.3
20260906011838 25 218 0.0 0.0 0.00 0.00 0.00 34 1107.1
20260906011333 25 220 0.0 1.6 0.00 0.00 0.00 32 1107.4
20260906010829 25 239 0.0 1.6 0.00 0.00 0.00 31 1107.0
20260906010325 25 229 0.0 1.6 0.00 0.00 0.00 32 1107.1
20260906005820 26 220 1.6 1.6 0.00 0.00 0.00 31 1107.4
20260906005319 26 205 1.6 1.6 0.00 0.00 0.00 30 1107.4
20260906004818 26 205 0.0 1.6 0.00 0.00 0.00 31 1107.3
20260906004312 27 222 0.0 1.6 0.00 0.00 0.00 30 1107.0
20260906003808 27 225 3.2 3.2 0.00 0.00 0.00 28 1107.0
20260906003303 27 234 1.6 3.2 0.00 0.00 0.00 28 1106.9
20260906002759 27 258 1.6 3.2 0.00 0.00 0.00 28 1107.0
20260906002258 27 348 6.4 8.0 0.00 0.00 0.00 28 1107.1
20260906001754 28 254 0.0 1.6 0.00 0.00 0.00 26 1106.9
20260906001254 28 311 4.8 4.8 0.00 0.00 0.00 27 1107.0
20260906000749 28 288 1.6 8.0 0.00 0.00 0.00 28 1106.8
20260906000244 28 336 3.2 8.0 0.00 0.00 0.00 26 1107.4
20260905235739 28 322 1.6 9.7 0.00 0.00 0.00 27 1107.3
20260905235239 28 226 3.2 4.8 0.00 0.00 0.00 27 1107.0
20260905234735 28 303 3.2 4.8 0.00 0.00 0.00 27 1106.9
20260905234229 27 74 4.8 8.0 0.00 0.00 0.00 27 1106.9
20260905233725 28 213 0.0 3.2 0.00 0.00 0.00 29 1107.3
20260905233224 27 223 1.6 1.6 0.00 0.00 0.00 29 1107.0
20260905232719 28 223 1.6 4.8 0.00 0.00 0.00 27 1106.9